Simultaneous Nadir Overpasses (SNOs) Predictions

Prediction of SNOs near US between AQUA and NPP Satellite Orbit:

Table of predicted SNOs near US for the next 10.0 days since TLE Epoch: 12/12/2015
Index Date (AQUA) Time (AQUA) AQUA Lat,Lon Date (NPP) Time (NPP) NPP Lat,Lon Distance(km) Time Diff (sec)
1 12/13/2015 08:33:23 25.90,-100.49 12/13/2015 08:26:41 25.92,-100.62 13.56 402
2 12/13/2015 10:09:45 34.98,-122.81 12/13/2015 10:05:34 35.09,-123.45 59.01 251
3 12/16/2015 07:18:42 49.90, -76.00 12/16/2015 07:22:34 50.34, -78.26 168.82 232
4 12/16/2015 08:57:35 49.90,-100.72 12/16/2015 09:04:02 50.45,-103.59 213.33 387
5 12/18/2015 18:16:50 49.96, -80.18 12/18/2015 18:12:49 49.69, -81.75 116.62 241
6 12/18/2015 19:55:43 49.96,-104.90 12/18/2015 19:54:17 49.58,-107.08 161.90 86
7 12/18/2015 21:29:53 33.06,-123.97 12/18/2015 21:30:53 32.53,-126.51 244.18 60
8 12/21/2015 07:45:30 20.06, -89.51 12/21/2015 07:37:32 20.07, -89.41 9.81 478
9 12/21/2015 09:21:31 30.41,-111.68 12/21/2015 09:16:04 30.48,-112.09 40.28 327




NCC Satellite Simultaneous Nadir Overpasses (SNOs) Prediction Service
